TimeEDT,TemperatureF,Dew PointF,Humidity,Sea Level PressureIn,VisibilityMPH,Wind Direction,Wind SpeedMPH,Gust SpeedMPH,PrecipitationIn,Events,Conditions,WindDirDegrees,DateUTC
12:15 AM,40.6,35.1,80,30.18,10.0,Calm,Calm,-,N/A,,Clear,0,2012-10-09 04:15:00
12:35 AM,39.7,34.7,82,30.18,10.0,Calm,Calm,-,N/A,,Clear,0,2012-10-09 04:35:00
12:55 AM,39.9,35.4,84,30.18,10.0,Calm,Calm,-,N/A,,Clear,0,2012-10-09 04:55:00
1:15 AM,39.2,34.9,84,30.18,5.0,Calm,Calm,-,N/A,,Clear,0,2012-10-09 05:15:00
1:35 AM,39.0,35.1,86,30.18,5.0,Calm,Calm,-,N/A,,Clear,0,2012-10-09 05:35:00
1:55 AM,38.3,34.2,85,30.18,7.0,Calm,Calm,-,N/A,,Clear,0,2012-10-09 05:55:00
2:15 AM,37.6,33.6,86,30.18,7.0,Calm,Calm,-,N/A,,Clear,0,2012-10-09 06:15:00
2:35 AM,35.8,32.2,87,30.18,5.0,Calm,Calm,-,N/A,,Clear,0,2012-10-09 06:35:00
2:55 AM,36.3,32.7,87,30.18,5.0,Calm,Calm,-,N/A,,Clear,0,2012-10-09 06:55:00
3:15 AM,37.2,33.4,86,30.18,0.5,Calm,Calm,-,N/A,Fog,Fog,0,2012-10-09 07:15:00
4:15 AM,34.3,31.5,89,30.17,0.2,Calm,Calm,-,N/A,Fog,Fog,0,2012-10-09 08:15:00
4:35 AM,34.0,31.3,90,30.17,0.2,Calm,Calm,-,N/A,Fog,Fog,0,2012-10-09 08:35:00
4:55 AM,34.2,31.5,90,30.17,0.2,Calm,Calm,-,N/A,Fog,Fog,0,2012-10-09 08:55:00
5:15 AM,34.5,31.8,90,30.17,1.2,Calm,Calm,-,N/A,,Overcast,0,2012-10-09 09:15:00
5:35 AM,33.1,30.6,90,30.17,0.2,Calm,Calm,-,N/A,Fog,Fog,0,2012-10-09 09:35:00
5:55 AM,33.4,30.9,90,30.17,0.5,Calm,Calm,-,N/A,Fog,Fog,0,2012-10-09 09:55:00
6:15 AM,34.0,31.6,91,30.17,4.0,Calm,Calm,-,N/A,,Scattered Clouds,0,2012-10-09 10:15:00
6:35 AM,33.4,30.9,90,30.18,5.0,Calm,Calm,-,N/A,,Scattered Clouds,0,2012-10-09 10:35:00
6:55 AM,32.4,30.0,91,30.18,0.2,Calm,Calm,-,N/A,Fog,Fog,0,2012-10-09 10:55:00
7:15 AM,32.0,29.7,91,30.19,0.2,Calm,Calm,-,N/A,Fog,Fog,0,2012-10-09 11:15:00
7:35 AM,32.0,29.1,89,30.19,0.2,Calm,Calm,-,N/A,Fog,Fog,0,2012-10-09 11:35:00
7:55 AM,32.0,29.3,90,30.19,0.2,Calm,Calm,-,N/A,Fog,Fog,0,2012-10-09 11:55:00
8:15 AM,32.0,29.3,90,30.20,0.2,Calm,Calm,-,N/A,Fog,Fog,0,2012-10-09 12:15:00
8:35 AM,32.4,30.0,91,30.20,0.2,Calm,Calm,-,N/A,Fog,Fog,0,2012-10-09 12:35:00
8:55 AM,33.1,30.9,92,30.20,0.5,Calm,Calm,-,N/A,Fog,Fog,0,2012-10-09 12:55:00
9:15 AM,34.7,32.2,91,30.20,1.0,Calm,Calm,-,N/A,,Overcast,0,2012-10-09 13:15:00
9:35 AM,36.9,34.2,90,30.19,0.8,Calm,Calm,-,N/A,,Overcast,0,2012-10-09 13:35:00
9:55 AM,40.5,37.6,89,30.19,7.0,SSE,5.8,-,N/A,,Scattered Clouds,160,2012-10-09 13:55:00
10:15 AM,44.4,41.4,89,30.19,10.0,South,6.9,-,N/A,,Clear,190,2012-10-09 14:15:00
10:35 AM,46.8,42.8,86,30.19,10.0,South,6.9,-,N/A,,Clear,190,2012-10-09 14:35:00
10:55 AM,48.4,42.3,79,30.19,10.0,SSW,6.9,-,N/A,,Scattered Clouds,210,2012-10-09 14:55:00
11:15 AM,51.1,40.6,67,30.18,10.0,SSW,9.2,-,N/A,,Scattered Clouds,210,2012-10-09 15:15:00
11:35 AM,52.3,39.2,61,30.18,10.0,SSW,8.1,-,N/A,,Scattered Clouds,210,2012-10-09 15:35:00
11:55 AM,53.1,38.3,57,30.17,10.0,SW,8.1,-,N/A,,Clear,220,2012-10-09 15:55:00
12:15 PM,54.1,38.1,55,30.16,10.0,South,5.8,-,N/A,,Clear,170,2012-10-09 16:15:00
12:35 PM,55.6,36.9,49,30.15,10.0,South,8.1,-,N/A,,Clear,190,2012-10-09 16:35:00
12:55 PM,56.3,35.8,46,30.14,10.0,SSW,5.8,-,N/A,,Clear,210,2012-10-09 16:55:00
1:15 PM,57.4,35.6,44,30.13,10.0,South,5.8,-,N/A,,Scattered Clouds,190,2012-10-09 17:15:00
1:35 PM,58.3,34.5,41,30.12,10.0,South,8.1,-,N/A,,Scattered Clouds,190,2012-10-09 17:35:00
1:55 PM,58.8,33.6,39,30.11,10.0,South,13.8,18.4,N/A,,Clear,180,2012-10-09 17:55:00
2:15 PM,59.0,33.4,38,30.09,10.0,South,8.1,-,N/A,,Clear,190,2012-10-09 18:15:00
2:35 PM,59.5,32.4,36,30.08,10.0,SSW,11.5,-,N/A,,Clear,210,2012-10-09 18:35:00
2:55 PM,60.1,30.4,33,30.07,10.0,South,9.2,-,N/A,,Clear,180,2012-10-09 18:55:00
3:15 PM,60.4,29.8,31,30.07,10.0,SSW,6.9,-,N/A,,Clear,210,2012-10-09 19:15:00
3:35 PM,60.6,30.0,31,30.06,10.0,SSE,10.4,-,N/A,,Clear,160,2012-10-09 19:35:00
3:55 PM,60.8,29.5,31,30.05,10.0,South,3.5,-,N/A,,Clear,190,2012-10-09 19:55:00
4:15 PM,61.0,28.9,30,30.04,10.0,South,10.4,17.3,N/A,,Clear,170,2012-10-09 20:15:00
4:35 PM,61.2,27.7,28,30.04,10.0,SSE,8.1,-,N/A,,Clear,160,2012-10-09 20:35:00
4:55 PM,61.2,28.8,29,30.04,10.0,South,11.5,17.3,N/A,,Clear,170,2012-10-09 20:55:00
5:15 PM,60.8,28.8,30,30.03,10.0,South,8.1,-,N/A,,Clear,180,2012-10-09 21:15:00
5:35 PM,60.3,28.4,30,30.03,10.0,South,10.4,-,N/A,,Clear,180,2012-10-09 21:35:00
5:55 PM,59.7,29.7,32,30.02,10.0,South,8.1,-,N/A,,Clear,170,2012-10-09 21:55:00
6:15 PM,59.0,30.2,34,30.02,10.0,South,10.4,-,N/A,,Clear,180,2012-10-09 22:15:00
6:35 PM,57.7,31.1,36,30.02,10.0,SSE,9.2,-,N/A,,Clear,160,2012-10-09 22:35:00
6:55 PM,55.9,31.5,39,30.02,10.0,South,9.2,-,N/A,,Clear,170,2012-10-09 22:55:00
7:15 PM,54.0,32.0,43,30.01,10.0,SSE,8.1,-,N/A,,Clear,150,2012-10-09 23:15:00
7:35 PM,52.5,32.7,47,30.02,10.0,SSE,8.1,-,N/A,,Clear,160,2012-10-09 23:35:00
7:55 PM,51.3,33.3,50,30.02,10.0,South,6.9,-,N/A,,Clear,170,2012-10-09 23:55:00
8:15 PM,49.5,33.4,54,30.02,10.0,SSE,8.1,-,N/A,,Clear,160,2012-10-10 00:15:00
8:35 PM,49.3,34.0,56,30.01,10.0,SSE,8.1,-,N/A,,Clear,160,2012-10-10 00:35:00
8:55 PM,48.9,34.5,58,30.02,10.0,South,6.9,-,N/A,,Clear,170,2012-10-10 00:55:00
9:15 PM,47.7,34.9,61,30.01,10.0,SSE,6.9,-,N/A,,Clear,160,2012-10-10 01:15:00
9:35 PM,47.3,35.2,63,30.01,10.0,South,8.1,-,N/A,,Clear,170,2012-10-10 01:35:00
9:55 PM,47.7,36.0,64,30.01,10.0,South,6.9,-,N/A,,Clear,180,2012-10-10 01:55:00
10:15 PM,47.1,36.5,67,30.01,10.0,South,6.9,-,N/A,,Clear,170,2012-10-10 02:15:00
10:35 PM,46.2,36.9,70,30.01,10.0,South,6.9,-,N/A,,Clear,180,2012-10-10 02:35:00
10:55 PM,46.8,37.4,70,30.01,10.0,South,6.9,-,N/A,,Clear,180,2012-10-10 02:55:00
11:15 PM,45.9,37.2,72,30.00,10.0,South,5.8,-,N/A,,Clear,170,2012-10-10 03:15:00
11:35 PM,44.2,36.7,75,29.99,10.0,South,5.8,-,N/A,,Clear,170,2012-10-10 03:35:00
11:55 PM,43.7,36.9,77,29.98,10.0,South,6.9,-,N/A,,Clear,170,2012-10-10 03:55:00